Wind_Speed
10 6 5 2 3 5 4 3 2 4 6 8 9 10 9 9 10 11 12 13 15 15 15 19 21 22 22 24 25 20 20 16 13 15 20 25 26 27 21 15 12 10 7
10 8 7 5 5 5 5 4 5 6 6 9 11 11 12 12 12 15 16 15 15 16 17 19 21 21 24 24 25 24 24 23 23 17 19 20 29 25 18 12 10 8 7
12 11 10 7 6 6 5 5 6 8 12 12 11 13 14 15 15 15 15 15 15 15 17 19 23 26 25 25 26 24 23 23 23 20 13 20 22 20 15 10 10 7 4
15 12 10 8 7 6 8 7 8 8 11 12 12 14 14 13 14 16 16 16 16 14 14 17 21 25 28 27 24 22 24 25 23 20 18 17 17 16 12 12 10 7 3
16 14 9 9 8 7 9 9 9 10 10 16 17 14 13 13 16 17 18 19 16 15 16 18 19 23 26 27 29 28 27 24 22 19 13 11 10 15 11 9 10 6 2
19 16 12 11 10 10 11 11 11 8 13 15 14 13 13 13 13 15 15 14 14 14 17 18 19 22 24 24 23 22 23 24 21 16 10 11 12 13 12 10 9 4 1
22 19 17 14 12 13 12 9 9 10 14 14 12 11 11 15 13 14 9 9 13 16 18 19 21 24 26 27 22 18 14 15 15 14 14 14 15 15 13 10 9 6 3
25 22 19 16 13 15 14 11 10 10 10 13 12 9 11 14 15 14 12 13 14 15 18 25 24 24 23 21 18 10 5 8 11 10 8 11 8 10 10 7 6 7 8
27 26 22 18 17 16 15 13 11 12 12 14 13 14 17 17 15 14 14 14 15 15 19 21 26 26 25 19 10 4 5 10 10 8 6 5 6 8 10 8 10 11 4
29 29 26 22 21 17 15 14 14 15 16 15 16 15 15 17 14 13 13 15 16 18 15 18 21 20 20 14 9 9 14 13 9 10 14 13 12 11 10 7 9 8 6
34 30 28 25 26 21 18 18 16 16 16 16 15 14 14 14 15 13 14 16 19 20 19 18 19 18 16 13 12 15 17 19 17 18 16 15 16 16 16 14 12 9 10
35 33 30 28 27 24 23 23 21 20 18 16 15 13 12 13 13 14 14 16 18 19 19 17 16 15 16 18 17 16 14 16 17 16 17 18 19 18 16 12 9 9 11
34 34 33 32 30 28 27 25 25 23 22 20 18 16 15 14 13 15 14 15 16 16 17 17 15 15 14 14 15 15 18 18 18 20 20 20 19 19 18 17 17 20 21
33 35 34 33 32 30 30 29 28 27 26 23 21 20 19 18 18 17 17 15 16 16 16 17 17 17 14 15 18 18 18 19 20 21 23 23 22 21 20 19 23 22 20
34 32 32 33 35 33 32 32 32 30 30 29 27 24 22 21 23 21 20 19 20 19 18 19 20 20 20 21 21 20 20 21 21 23 24 25 23 21 23 23 23 14 17
29 28 30 29 32 30 29 28 30 30 29 28 28 26 25 22 19 20 21 21 19 22 21 24 26 26 26 26 25 22 21 21 22 26 27 26 25 24 24 22 19 19 18
33 30 30 30 30 27 26 24 24 27 29 28 27 26 25 24 24 21 21 22 23 22 25 27 30 30 32 31 28 26 25 25 28 30 28 27 27 27 26 25 22 22 19
34 34 34 30 30 29 28 28 26 24 24 28 30 27 25 25 25 24 22 23 23 26 27 28 31 33 33 33 30 29 27 28 32 31 30 29 29 30 29 26 26 23 21
33 34 33 32 31 31 30 27 29 26 25 27 29 28 28 27 26 25 26 30 31 32 32 30 32 34 35 35 34 32 30 32 35 35 33 31 31 31 28 26 24 19 17
33 35 35 31 29 30 29 27 25 26 26 28 31 34 30 29 29 27 28 32 33 36 37 37 35 35 36 35 35 34 32 35 37 36 35 34 33 32 31 29 23 20 14
30 33 35 30 31 31 29 28 28 26 27 28 34 34 34 35 36 36 32 32 37 39 39 39 41 38 36 34 34 36 36 37 40 39 39 37 34 31 26 22 21 18 17
30 32 36 32 29 29 29 29 28 29 30 29 33 34 34 36 37 38 40 41 36 37 41 42 41 42 42 39 37 36 35 37 40 39 38 38 35 33 33 30 22 19 18
31 33 31 27 29 29 30 30 31 31 30 31 34 35 34 36 39 40 42 42 42 40 38 42 43 41 40 41 41 38 37 39 43 44 39 39 38 35 30 21 21 20 19
34 31 32 30 29 30 31 30 31 33 32 32 35 36 36 37 38 40 42 43 41 41 40 40 42 44 42 40 41 39 37 37 42 40 41 37 32 28 20 23 22 20 17
32 31 31 30 29 32 31 32 34 33 37 34 37 37 39 39 38 37 38 38 39 38 39 38 38 38 37 36 36 35 35 37 40 41 39 32 25 22 25 22 21 18 17
33 34 33 30 29 30 28 30 33 33 34 37 39 39 39 38 39 38 36 34 33 33 32 33 34 34 33 32 33 32 36 38 39 37 34 29 27 26 25 23 22 21 18
Wind_Direction
188 187 166 125 83 61 90 87 77 136 159 174 181 184 181 171 169 163 149 147 135 149 150 151 139 150 154 161 168 164 146 138 122 113 136 174 171 165 164 168 172 184 191
187 178 158 136 115 83 98 84 103 110 133 154 163 165 164 157 158 151 138 132 142 146 145 147 143 150 154 149 146 142 140 136 129 126 130 136 148 156 155 164 178 191 205
173 166 151 147 129 92 99 105 107 106 122 138 150 154 151 149 150 144 135 134 136 144 144 145 147 153 144 146 141 137 144 146 133 130 116 130 138 154 163 170 178 189 192
176 168 157 152 140 96 101 118 111 114 129 136 148 152 152 148 145 140 135 131 135 141 146 153 151 151 150 146 144 143 136 131 135 128 125 129 147 165 174 177 183 191 206
176 169 160 145 139 111 110 124 109 117 128 134 135 145 151 152 144 136 130 130 136 144 155 153 158 161 154 151 146 143 138 133 132 129 126 137 145 160 169 176 187 188 210
177 170 159 148 142 127 116 125 119 120 134 137 140 148 155 160 156 147 131 129 136 150 155 156 155 153 146 148 145 147 148 145 149 152 160 164 163 169 174 168 171 175 148
180 172 167 163 159 148 140 135 121 122 144 149 148 139 152 156 154 158 165 150 145 150 160 159 144 148 146 133 138 143 153 167 180 178 175 183 180 180 174 164 173 177 160
181 178 174 174 173 161 155 148 137 128 147 158 151 150 134 139 154 156 157 150 147 146 148 146 140 147 152 151 146 149 163 185 199 196 184 162 149 170 182 176 177 183 158
184 182 180 179 173 174 173 165 147 140 127 153 153 144 134 135 152 154 154 153 144 146 148 145 150 152 153 157 165 218 200 174 188 195 173 182 206 193 196 196 181 164 148
188 186 184 179 177 174 175 174 162 152 136 135 147 149 146 146 147 149 152 156 156 160 155 172 178 170 170 180 200 178 148 146 162 154 169 148 134 128 141 171 169 165 116
191 189 187 184 181 179 171 167 164 158 149 143 144 151 157 167 170 162 161 156 158 160 165 167 180 195 204 205 198 175 152 150 148 149 149 136 126 124 120 120 112 96 104
189 190 191 187 185 182 175 174 171 166 163 161 157 154 157 159 165 171 179 182 177 176 181 183 181 183 187 187 185 188 176 173 164 154 146 140 135 126 119 114 117 119 118
186 190 193 192 191 189 183 180 180 179 174 172 175 175 173 172 174 179 184 188 188 184 181 180 178 177 179 186 192 192 185 176 166 158 156 151 141 135 135 134 127 122 112
184 190 195 195 196 196 195 191 188 188 188 186 187 189 191 189 185 180 190 191 191 188 184 185 182 179 183 185 179 179 182 182 176 166 154 149 146 145 147 147 132 126 113
185 189 192 196 199 201 202 201 201 202 199 197 201 200 195 200 207 203 200 195 198 198 194 191 185 182 180 176 175 178 183 184 182 171 166 161 158 156 155 154 146 140 125
181 186 190 190 196 200 200 204 211 214 212 216 215 211 213 218 213 213 215 214 209 206 196 191 192 191 187 183 183 183 187 191 188 181 175 170 168 164 156 161 155 142 128
186 187 189 188 189 190 195 199 204 216 221 221 224 222 223 224 222 221 217 216 217 215 212 207 203 199 198 197 195 196 195 195 191 185 180 177 172 167 162 154 151 144 134
190 191 190 191 189 191 194 198 202 206 214 221 225 226 227 229 230 226 222 218 212 218 219 216 210 209 208 206 204 205 203 196 192 189 185 180 174 167 161 159 158 160 150
188 191 192 191 193 195 196 196 201 206 209 218 220 222 224 227 229 230 231 222 217 220 222 224 223 218 216 212 211 211 210 201 195 190 187 181 176 173 169 166 160 158 150
193 195 191 190 189 191 193 195 196 202 207 212 217 221 218 221 226 225 227 223 224 227 226 226 226 227 224 220 217 214 209 202 196 192 188 183 179 176 169 165 160 156 143
191 193 191 188 190 191 194 195 199 202 207 211 221 224 221 218 223 228 232 228 227 230 233 233 230 229 228 223 217 214 212 206 199 194 188 184 178 168 162 161 154 159 150
187 191 191 193 192 192 196 198 200 204 210 213 222 228 228 224 227 230 232 236 238 239 237 237 237 234 232 226 222 216 212 205 197 194 188 184 177 172 167 162 163 165 160
185 190 189 192 195 198 198 199 202 208 212 215 222 228 225 227 228 233 237 239 242 240 240 236 237 239 237 233 230 225 219 210 198 193 185 179 173 168 163 156 173 168 164
189 189 188 191 192 196 199 202 207 211 213 216 221 226 231 233 235 237 240 242 243 243 243 241 240 239 238 231 225 220 214 205 195 191 182 171 166 164 161 173 177 170 162
188 187 189 192 193 197 202 204 210 214 216 217 223 225 232 236 240 243 245 246 246 245 243 240 239 236 234 230 216 205 197 192 181 173 166 169 166 161 179 179 178 168 166
197 198 200 198 196 197 202 206 214 215 217 221 226 231 234 236 241 246 247 246 244 243 241 236 233 228 216 206 198 187 176 169 162 159 163 168 164 174 188 185 181 171 167
Height
728 729 731 731 731 730 729 730 730 729 729 730 732 735 738 739 741 743 745 748 751 755 757 761 764 767 770 773 778 781 784 787 792 799 804 810 817 821 828 834 837 840 843
727 729 731 731 731 731 731 731 731 731 730 731 734 737 739 742 743 745 747 750 753 756 759 764 767 770 773 777 781 784 786 790 795 799 806 811 814 822 829 833 837 841 845
727 729 731 732 732 732 733 733 733 733 733 734 736 738 741 744 746 749 751 753 757 759 762 764 768 772 776 780 783 785 790 794 798 803 806 812 818 824 830 835 838 842 844
727 729 731 732 733 734 735 736 736 736 737 738 739 741 744 747 749 752 755 757 760 763 765 767 771 774 778 782 782 790 793 797 801 805 810 815 820 827 831 835 840 842 844
726 729 732 733 735 736 737 738 739 739 740 741 743 746 747 750 752 754 757 759 762 766 769 772 775 779 782 785 788 793 796 800 804 809 813 818 824 827 831 834 838 842 843
726 729 732 734 736 738 739 740 741 741 742 744 745 747 749 752 755 758 759 762 765 767 770 774 778 782 785 789 793 796 800 803 806 812 816 821 824 826 830 834 837 840 843
725 729 731 735 737 739 741 743 744 744 745 746 748 750 751 754 757 759 761 764 767 770 772 776 779 785 789 792 797 801 805 809 811 813 816 819 823 826 830 832 836 840 841
724 727 731 734 738 740 743 745 746 746 747 748 750 751 752 755 759 762 765 768 771 773 776 776 781 786 792 796 798 803 806 809 812 815 818 820 823 825 828 831 834 837 839
722 726 730 733 737 741 744 746 747 748 749 750 753 755 757 759 762 766 768 771 774 777 781 784 786 791 795 799 802 804 806 808 812 815 817 820 823 825 827 829 832 834 836
720 724 728 732 736 740 744 747 749 751 752 753 756 759 761 763 766 769 771 773 776 780 785 788 792 795 799 802 804 805 807 810 812 813 818 822 824 825 827 829 830 830 832
717 722 726 730 734 739 743 747 750 753 755 757 758 761 763 766 768 771 774 776 778 782 786 790 793 797 800 802 805 808 809 812 816 817 819 821 823 827 828 829 830 831 833
714 720 725 729 733 738 741 745 749 752 756 758 761 763 765 767 770 773 775 778 781 783 786 790 794 796 799 802 806 810 811 813 814 816 819 822 825 827 828 828 830 833 837
712 717 722 728 731 735 740 744 747 751 754 757 761 764 767 769 771 774 777 780 783 786 788 792 795 798 801 803 806 808 810 812 814 817 819 823 825 827 828 830 834 836 840
708 714 720 725 730 734 738 742 746 749 752 755 759 762 766 769 772 775 777 780 783 786 789 792 795 798 800 802 805 808 810 812 814 816 819 822 825 828 831 833 836 840 842
704 710 716 722 726 731 735 739 742 746 749 752 756 760 764 767 769 773 776 778 782 785 788 791 794 796 799 802 804 806 809 811 813 814 817 820 825 829 832 834 838 840 842
700 706 711 717 723 728 732 737 741 744 748 751 754 758 762 765 768 771 774 777 779 782 785 787 790 793 796 799 801 804 806 808 810 813 816 820 824 827 831 836 839 842 846
691 698 705 711 717 723 728 733 737 742 746 749 752 756 759 762 765 768 771 774 776 778 780 782 785 788 791 794 797 799 801 805 809 811 815 818 822 826 829 834 837 839 842
687 693 698 704 710 716 721 726 731 735 740 743 748 752 756 759 762 765 768 771 773 774 775 777 780 783 787 790 793 795 798 802 805 809 813 817 820 823 827 830 830 837 839
681 687 693 698 704 709 715 720 725 729 733 737 741 746 750 754 757 760 762 763 765 767 770 772 775 777 780 782 786 790 793 796 801 805 809 812 817 821 826 829 833 840 841
675 680 686 693 699 705 710 715 719 723 727 730 734 736 742 747 750 752 754 757 759 760 763 766 769 771 774 778 782 784 788 793 797 802 805 809 814 819 821 827 834 838 838
668 675 681 688 692 697 703 708 712 717 719 722 725 729 733 737 740 743 746 748 751 753 756 759 762 766 770 774 776 780 782 787 791 795 801 806 811 817 825 832 830 832 832
661 667 675 680 686 691 695 700 705 709 712 715 718 722 726 730 732 734 736 739 742 746 749 751 754 757 760 765 768 772 777 780 786 793 799 803 808 814 816 815 825 830 832
655 661 668 675 679 685 690 693 697 701 704 707 710 714 717 720 723 725 727 729 732 734 738 742 746 748 751 755 760 764 767 771 777 784 794 802 805 809 814 822 830 832 831
647 653 659 664 670 676 681 686 688 691 694 698 701 705 708 711 714 716 719 722 725 728 731 734 736 740 742 746 749 755 760 766 766 782 787 798 808 812 817 822 829 830 830
639 645 652 657 660 665 671 675 679 682 685 687 690 693 697 702 704 707 710 713 716 719 722 725 729 732 736 741 745 750 756 762 772 778 789 804 810 812 822 824 828 829 832
634 639 643 648 652 655 663 666 669 673 675 678 681 683 687 691 695 699 702 705 708 711 715 717 720 723 728 734 742 750 757 764 773 779 789 800 806 813 820 822 824 825 828